Temperature
17 17 17 17 17 17 16 16 16 16 16 16 17 17 17 17 17 17 17 17 17 17 16 16 16 16 16 16 16 16 16 16 16 16 16 16 16 16 16 16 16 15 15
17 17 17 16 16 16 16 16 16 16 16 16 16 16 16 16 17 17 16 16 16 16 16 16 16 16 16 16 16 16 16 16 16 16 16 16 16 16 16 16 16 15 15
17 16 16 16 16 16 16 16 16 16 16 16 16 16 16 16 16 16 16 16 16 16 16 16 16 16 16 16 16 16 16 16 16 16 16 16 16 15 15 15 15 15 15
16 16 16 16 16 16 16 16 16 16 16 16 16 16 16 16 16 16 16 16 16 16 16 16 16 16 16 16 16 16 16 16 16 16 16 16 15 15 15 15 15 15 15
16 16 16 16 16 15 15 15 15 15 16 16 16 16 16 16 16 16 16 16 15 15 16 16 16 15 15 15 16 16 16 16 16 16 16 15 15 15 15 15 15 15 15
16 16 16 16 15 15 15 15 15 15 15 15 15 16 16 16 16 16 16 15 15 15 15 15 15 15 15 15 15 15 15 15 15 15 15 15 15 15 15 15 15 15 15
16 16 16 15 15 15 15 15 15 15 15 15 15 15 15 15 15 15 15 15 15 15 15 15 15 15 15 15 15 15 15 15 15 15 15 15 15 15 15 15 15 15 15
16 16 15 15 15 15 15 15 15 15 15 15 15 15 15 15 15 15 15 15 15 15 15 15 15 15 15 15 15 15 15 15 15 15 15 15 15 15 15 15 15 15 15
16 15 15 15 15 15 15 15 15 15 15 15 15 15 15 15 15 15 15 15 15 15 15 15 15 15 15 15 15 15 15 15 15 15 15 15 15 15 15 15 15 15 15
15 15 15 15 15 15 15 15 15 15 15 15 15 15 15 15 15 15 15 15 15 15 15 15 15 15 15 14 15 14 14 14 14 14 14 14 14 14 14 14 14 15 15
15 15 15 15 15 15 14 14 14 14 15 15 15 15 15 15 15 15 15 15 15 15 15 15 15 14 14 14 14 14 14 14 14 14 14 14 14 14 14 14 14 14 14
16 15 15 15 15 14 14 14 14 14 14 14 15 15 15 15 15 15 15 15 15 15 15 15 15 14 14 14 14 14 14 14 14 14 14 14 14 14 14 14 14 14 14
16 16 15 15 15 14 14 14 14 14 14 14 14 15 15 15 15 15 15 15 15 15 15 15 15 14 14 14 14 14 14 14 14 14 14 14 14 14 14 14 14 14 14
16 16 15 15 15 14 14 14 14 14 14 14 14 14 14 14 14 14 15 15 14 14 14 15 15 14 14 14 14 14 14 14 14 13 13 13 13 13 14 14 14 14 14
16 16 15 15 15 15 14 14 14 14 14 14 14 14 14 14 14 14 14 14 14 14 14 15 14 14 14 14 14 14 14 13 13 13 13 13 13 13 13 13 13 13 14
16 16 15 15 15 15 15 14 14 14 14 14 14 14 14 14 14 14 14 14 14 14 14 14 14 14 14 14 14 14 13 13 13 13 13 13 13 13 13 13 13 13 13
16 16 16 15 15 15 15 14 14 14 14 14 14 14 14 14 14 14 14 14 14 14 14 14 14 14 14 14 14 14 13 13 13 13 13 13 13 13 13 13 13 13 13
16 16 16 16 15 15 15 15 14 14 14 14 14 14 14 14 14 14 13 13 13 13 13 14 14 14 14 14 14 14 14 14 13 13 13 13 13 13 13 13 13 13 13
16 16 16 16 16 15 15 15 15 14 14 14 14 14 14 14 14 14 13 13 13 13 13 13 14 14 14 14 14 14 14 14 14 14 14 13 13 13 13 13 13 13 13
16 16 16 16 16 16 15 15 15 15 14 14 14 14 14 14 14 14 14 13 13 13 13 13 14 14 14 14 14 14 14 14 14 14 14 14 14 14 13 13 13 13 13
16 16 16 16 16 16 15 15 15 15 14 14 14 14 14 14 14 14 14 14 13 13 13 13 14 14 14 14 14 14 14 14 14 14 14 14 14 14 14 13 13 13 13
16 16 16 16 16 16 15 15 15 14 14 14 14 14 14 14 14 14 14 14 13 13 13 13 13 13 14 14 13 13 13 13 13 14 14 14 14 14 14 13 13 13 13
16 16 16 16 16 16 15 15 15 14 14 14 14 14 14 14 14 14 14 13 13 13 13 13 13 13 13 13 13 13 13 13 13 13 13 13 14 13 14 13 13 13 13
16 16 16 15 15 15 15 15 14 14 14 14 14 14 14 14 14 13 13 13 13 13 13 13 13 13 13 13 12 12 12 12 12 13 12 12 13 13 13 13 13 13 13
16 16 15 15 15 15 14 14 14 14 14 14 13 13 13 13 13 13 13 13 13 13 13 12 12 12 12 12 12 12 12 12 12 12 12 12 12 12 12 13 13 13 13
16 15 15 15 14 14 14 14 13 13 13 13 13 13 13 13 13 12 12 12 12 13 12 12 12 12 12 12 11 11 11 11 11 11 12 11 11 11 11 12 12 12 12
Wind_Speed
4 4 3 3 3 3 2 2 2 2 3 3 2 3 3 3 3 3 2 4 7 7 7 8 9 9 10 10 10 10 10 10 10 11 11 11 11 10 10 10 9 9 9
6 5 3 3 2 2 2 2 2 3 2 2 2 2 2 2 2 2 1 2 4 5 6 6 7 9 9 10 10 10 10 10 11 11 11 11 11 11 10 10 10 9 9
8 6 4 3 2 3 4 4 4 4 3 3 3 2 2 2 2 1 1 0 0 2 4 5 6 7 8 9 10 10 10 11 11 11 12 12 12 12 12 11 11 11 10
9 7 4 3 4 4 4 3 2 3 3 3 2 2 2 2 2 1 0 0 0 1 2 4 6 6 7 7 8 9 10 11 12 12 12 12 12 12 13 12 12 12 11
10 8 5 4 5 4 3 2 3 2 2 3 3 3 3 2 2 2 1 0 0 1 1 2 3 5 6 6 7 8 9 11 12 12 12 12 12 13 13 13 13 13 12
10 9 6 5 6 4 3 3 3 3 3 2 4 4 4 3 3 3 2 2 1 0 1 1 1 3 4 5 5 7 8 10 11 12 12 12 12 13 14 14 14 14 14
11 9 6 5 4 3 3 3 3 4 3 2 3 3 4 4 4 4 3 3 3 2 2 1 1 1 1 2 3 5 6 8 9 11 12 12 12 12 13 14 14 15 15
10 8 7 5 4 4 4 3 3 3 2 2 2 3 3 3 4 4 3 3 3 3 3 2 2 1 1 0 1 3 4 6 7 8 9 11 12 13 13 14 15 15 16
9 9 8 6 5 4 4 3 3 4 3 2 2 3 3 2 1 3 3 3 3 3 3 2 2 2 1 1 0 1 2 3 4 5 7 8 10 12 13 14 15 15 16
8 9 9 7 5 4 4 3 2 3 4 2 2 2 2 3 3 1 2 2 3 3 3 2 3 2 1 1 0 0 1 2 2 2 3 5 7 10 12 13 14 15 16
5 8 8 7 5 4 4 4 3 3 3 3 2 2 2 2 2 2 0 2 2 2 2 2 2 2 1 0 0 0 1 2 2 2 1 2 4 6 7 10 12 13 15
3 5 7 7 6 5 4 4 4 4 3 3 3 2 3 2 2 2 2 1 1 2 2 2 1 1 1 1 1 1 1 2 2 1 1 1 2 3 5 7 8 10 12
4 5 6 6 5 5 6 5 4 4 3 4 3 2 2 2 2 3 3 1 0 1 2 1 1 2 2 1 2 2 2 2 2 2 3 3 4 5 5 5 6 7 8
6 6 7 7 7 7 6 5 4 3 3 3 4 3 2 2 2 3 3 3 1 1 1 2 2 2 2 2 3 3 3 4 5 5 6 6 6 6 6 6 6 7 7
6 7 8 7 7 7 7 6 4 4 4 4 3 3 2 2 2 2 2 3 4 2 2 2 2 2 3 4 5 5 5 7 8 8 9 9 9 9 9 9 9 9 9
7 7 8 8 7 7 7 6 4 4 5 4 3 3 3 2 2 2 3 2 3 3 3 3 3 2 3 4 5 6 7 9 10 11 11 12 12 12 12 12 11 11 11
8 8 9 8 8 8 7 7 6 6 6 5 4 5 5 3 3 3 3 3 3 3 3 3 2 2 2 3 3 5 6 8 9 11 12 12 13 13 13 13 13 13 13
8 9 8 9 9 9 9 9 8 8 8 7 7 6 6 4 5 4 3 4 4 4 4 4 2 2 3 3 3 4 5 7 8 11 13 13 14 14 14 14 14 14 14
8 8 8 9 9 9 9 9 9 8 8 8 8 8 7 6 6 5 5 5 4 4 4 4 4 3 3 3 3 3 4 5 7 9 11 12 13 14 14 14 14 14 15
8 9 9 10 10 9 9 9 9 9 8 8 8 8 8 8 8 7 6 6 5 5 4 4 5 4 4 3 3 4 5 4 5 6 8 10 12 13 13 14 14 15 15
9 9 9 9 8 8 9 9 9 9 9 8 8 8 8 9 10 8 7 7 6 5 5 5 5 4 5 4 4 3 5 6 6 5 5 6 7 8 10 12 15 16 17
8 7 8 8 9 8 10 12 10 8 8 9 8 8 7 8 9 10 10 9 9 7 7 6 6 7 7 6 5 5 5 5 5 3 3 5 4 7 10 11 15 18 19
7 8 8 9 9 10 11 12 13 9 8 8 8 7 7 7 8 7 8 9 10 11 10 8 9 9 8 7 5 7 7 7 8 5 4 8 7 9 11 14 18 21 21
7 7 8 8 8 9 11 12 12 10 8 8 8 8 8 7 6 7 6 7 7 8 9 9 9 10 9 8 7 7 8 8 8 7 6 8 8 9 10 12 18 21 23
6 6 5 7 8 7 9 11 10 7 6 7 7 7 7 7 7 8 7 7 7 7 8 11 12 13 13 13 9 5 6 6 8 8 6 6 8 9 9 10 14 18 20
4 4 3 4 5 5 5 8 8 5 5 5 4 5 7 8 7 7 7 7 8 7 5 6 7 9 10 11 11 9 8 8 8 7 5 6 7 6 7 6 7 9 11
Wind_Direction
141 132 119 116 111 106 99 74 63 59 55 55 93 138 147 148 151 155 185 195 192 193 195 194 192 191 189 185 182 182 182 182 179 177 176 175 174 173 172 168 167 166 163
148 139 126 121 120 119 110 99 87 82 65 63 70 104 139 130 137 150 170 198 201 202 204 204 203 202 201 195 192 194 192 191 188 187 187 186 184 183 182 179 177 176 174
153 144 133 129 129 123 107 91 77 73 69 64 58 55 73 90 109 128 136 164 291 224 211 208 212 216 212 208 203 201 201 199 196 196 195 196 195 193 191 189 187 186 185
152 141 136 136 136 126 108 96 74 69 61 70 67 40 40 46 55 71 88 48 288 282 227 212 215 223 219 217 214 210 210 207 205 204 203 204 204 202 200 198 196 196 195
152 142 137 132 130 114 99 101 70 80 77 70 79 56 38 41 37 33 19 350 252 242 234 237 229 228 225 223 220 220 219 213 211 210 210 212 213 210 208 207 205 203 204
149 139 131 128 127 110 93 85 86 68 70 69 76 59 38 34 44 39 15 18 30 35 205 231 240 244 240 234 230 230 229 222 217 215 213 213 214 214 215 215 213 211 210
148 140 133 126 127 120 121 118 102 82 60 51 77 47 27 36 47 36 28 40 41 39 67 97 177 199 245 243 237 236 234 232 225 221 219 217 217 217 219 220 220 219 218
150 149 143 140 136 120 111 111 113 106 68 50 108 94 44 13 12 23 26 37 34 41 49 55 86 122 142 123 254 238 229 231 228 224 222 222 220 220 226 225 224 224 223
155 152 151 144 142 136 139 136 132 128 120 59 64 130 135 189 328 355 18 26 21 32 28 35 59 76 123 130 311 265 224 222 229 229 225 225 227 227 228 227 228 228 228
158 158 155 150 148 143 144 150 139 135 134 129 75 59 101 142 138 43 348 1 11 26 16 23 28 33 63 103 86 71 157 172 181 208 218 222 232 237 236 235 233 232 232
160 162 160 154 152 151 152 147 138 136 136 144 145 127 98 74 88 135 181 334 354 359 359 358 351 357 19 59 21 51 102 132 135 141 165 211 233 243 244 243 242 239 238
159 168 165 162 162 160 162 161 154 147 138 134 140 146 151 149 157 146 160 223 303 320 334 336 326 320 329 303 279 246 203 173 164 158 182 226 257 263 256 252 251 251 247
182 188 174 170 171 175 172 161 158 160 156 151 156 157 163 164 152 148 143 157 236 315 324 318 304 285 282 279 288 269 244 227 230 246 260 264 270 273 273 272 266 263 260
190 183 181 181 181 177 173 166 164 172 167 167 168 159 159 170 167 164 157 150 139 331 321 297 308 273 271 262 266 267 264 260 264 269 274 276 278 280 279 278 278 278 275
187 181 184 184 185 180 175 169 177 179 170 176 178 174 171 179 180 181 168 162 159 194 247 270 278 291 281 269 269 264 264 270 273 273 274 275 275 275 274 274 274 275 276
184 179 187 188 187 183 178 176 180 181 176 184 185 180 186 189 180 177 176 174 173 178 220 245 250 274 285 279 273 261 264 273 276 275 274 273 272 272 270 269 268 268 268
183 187 190 189 189 188 183 184 192 185 187 193 193 195 205 193 190 186 178 177 184 178 212 252 250 263 260 266 282 272 268 268 273 274 274 272 272 270 269 267 265 264 264
190 193 190 190 194 193 189 192 199 195 196 201 203 201 212 204 205 201 194 199 201 199 206 239 253 249 247 255 266 273 273 269 268 273 272 270 270 268 267 266 264 263 261
192 191 189 194 197 196 195 200 202 202 205 209 207 206 213 205 215 214 211 213 214 210 210 229 253 250 257 258 265 269 269 272 272 270 269 266 265 263 262 262 263 263 261
191 195 197 201 200 199 199 201 202 204 209 215 215 214 215 210 216 217 218 220 217 216 215 231 252 261 262 259 251 265 279 269 274 277 270 267 263 261 258 257 260 262 261
200 200 201 205 204 201 206 204 205 207 210 217 222 224 223 219 219 216 219 219 213 219 225 236 252 263 265 258 256 254 270 286 281 261 269 267 262 262 261 259 259 260 259
200 196 203 207 207 212 210 203 201 209 212 218 225 228 230 230 230 226 226 221 210 216 226 233 248 255 263 259 258 256 266 279 285 249 243 270 257 265 265 261 260 259 259
201 202 207 209 214 216 209 204 203 205 213 218 222 226 232 232 222 230 234 235 231 227 222 228 246 254 261 258 256 264 254 252 259 261 257 279 269 267 267 264 261 260 259
202 208 211 211 215 221 209 207 206 206 215 221 223 222 229 238 230 224 233 240 244 243 238 235 242 252 257 260 253 260 266 267 266 259 236 265 273 271 273 269 264 261 259
202 208 209 211 213 220 211 210 203 206 218 230 233 232 231 239 239 224 228 242 254 258 252 242 245 254 260 263 257 258 258 261 273 270 226 244 270 275 275 271 267 261 258
206 204 211 212 216 228 217 210 202 206 220 232 237 237 233 235 242 229 229 237 252 264 271 272 264 266 265 266 252 239 244 254 266 274 238 229 265 272 279 264 261 265 264
Height
1557 1558 1560 1561 1562 1563 1563 1564 1565 1566 1566 1567 1568 1569 1570 1571 1572 1573 1574 1575 1575 1576 1578 1579 1580 1581 1583 1584 1586 1587 1588 1590 1591 1592 1593 1595 1596 1597 1598 1599 1600 1601 1602
1557 1558 1560 1561 1562 1562 1563 1564 1565 1566 1566 1567 1568 1569 1570 1571 1571 1572 1574 1575 1575 1576 1577 1579 1580 1581 1583 1584 1585 1587 1588 1590 1591 1592 1593 1595 1596 1597 1598 1599 1600 1601 1602
1557 1558 1560 1561 1561 1562 1563 1564 1565 1565 1566 1567 1568 1569 1570 1570 1571 1572 1573 1574 1575 1576 1577 1578 1579 1581 1582 1583 1585 1586 1588 1589 1591 1592 1593 1594 1595 1597 1598 1599 1600 1601 1602
1557 1558 1559 1560 1561 1562 1563 1564 1565 1565 1566 1567 1568 1569 1570 1570 1571 1572 1573 1574 1575 1576 1577 1578 1579 1580 1581 1582 1584 1585 1587 1588 1590 1591 1592 1594 1595 1596 1597 1598 1599 1600 1601
1556 1558 1559 1560 1561 1562 1563 1563 1564 1565 1566 1567 1568 1569 1570 1570 1571 1572 1573 1574 1574 1575 1576 1577 1578 1579 1580 1581 1582 1584 1585 1587 1588 1589 1591 1592 1593 1595 1596 1597 1598 1599 1600
1556 1557 1558 1559 1560 1561 1562 1563 1564 1565 1566 1567 1568 1569 1570 1570 1571 1572 1573 1574 1574 1575 1576 1576 1577 1578 1579 1580 1581 1582 1583 1585 1586 1587 1589 1590 1591 1593 1594 1596 1597 1598 1599
1555 1556 1557 1559 1560 1561 1562 1563 1564 1565 1566 1567 1568 1569 1570 1570 1571 1572 1573 1573 1574 1575 1575 1576 1577 1577 1578 1579 1580 1581 1581 1583 1584 1585 1586 1588 1589 1591 1592 1593 1595 1596 1597
1554 1555 1557 1558 1559 1560 1561 1562 1563 1564 1565 1566 1568 1569 1570 1572 1571 1572 1573 1573 1574 1574 1575 1575 1576 1576 1577 1578 1579 1579 1580 1581 1582 1582 1584 1585 1586 1588 1589 1591 1592 1593 1595
1554 1555 1556 1557 1558 1560 1561 1562 1563 1564 1565 1566 1567 1569 1570 1570 1571 1572 1573 1573 1574 1574 1575 1575 1575 1576 1576 1577 1577 1578 1578 1579 1579 1580 1581 1582 1584 1585 1586 1587 1589 1590 1591
1553 1554 1556 1557 1558 1559 1560 1561 1563 1564 1565 1566 1567 1568 1569 1569 1571 1572 1573 1573 1573 1574 1574 1574 1575 1575 1575 1576 1576 1576 1577 1577 1578 1578 1579 1580 1581 1582 1583 1584 1585 1586 1587
1552 1553 1555 1556 1557 1558 1560 1561 1562 1563 1564 1565 1566 1567 1568 1569 1570 1571 1571 1572 1573 1573 1573 1574 1574 1574 1575 1575 1575 1576 1576 1576 1576 1577 1577 1578 1578 1579 1579 1580 1581 1582 1583
1550 1552 1554 1555 1556 1557 1559 1560 1561 1562 1563 1564 1565 1566 1567 1568 1569 1569 1570 1571 1572 1572 1573 1573 1573 1574 1574 1574 1574 1575 1575 1575 1575 1575 1576 1576 1576 1576 1577 1577 1578 1578 1579
1549 1551 1552 1554 1555 1556 1557 1559 1560 1561 1562 1563 1564 1565 1566 1567 1568 1568 1569 1570 1570 1571 1571 1572 1572 1573 1573 1573 1573 1574 1574 1574 1573 1574 1574 1574 1574 1574 1574 1574 1574 1575 1575
1548 1550 1551 1552 1554 1555 1556 1557 1558 1559 1560 1561 1562 1564 1565 1565 1566 1567 1568 1568 1569 1569 1570 1570 1571 1571 1572 1572 1572 1572 1572 1572 1572 1571 1571 1571 1571 1571 1571 1571 1571 1571 1571
1546 1548 1550 1551 1552 1553 1554 1556 1557 1558 1558 1560 1561 1562 1563 1564 1564 1565 1566 1567 1568 1567 1568 1568 1569 1569 1570 1570 1570 1570 1570 1570 1570 1569 1569 1568 1568 1568 1567 1567 1567 1568 1568
1544 1546 1548 1549 1550 1552 1553 1554 1555 1556 1556 1557 1559 1560 1561 1562 1562 1563 1563 1564 1565 1565 1565 1566 1566 1567 1567 1568 1568 1568 1568 1567 1567 1567 1566 1566 1565 1565 1564 1564 1564 1564 1564
1541 1544 1546 1547 1548 1549 1550 1551 1552 1553 1554 1555 1556 1557 1558 1559 1560 1560 1561 1561 1562 1562 1562 1563 1563 1564 1564 1565 1565 1565 1564 1564 1564 1563 1563 1563 1562 1562 1561 1561 1561 1560 1560
1538 1541 1543 1544 1545 1547 1548 1549 1550 1551 1551 1552 1553 1554 1555 1556 1557 1558 1558 1558 1559 1559 1560 1559 1560 1560 1561 1561 1561 1561 1561 1560 1560 1560 1559 1559 1558 1558 1557 1557 1557 1556 1556
1535 1537 1539 1541 1542 1543 1545 1546 1547 1548 1548 1549 1550 1551 1552 1553 1554 1554 1555 1555 1556 1556 1556 1556 1556 1557 1557 1557 1557 1557 1556 1556 1556 1555 1555 1555 1554 1554 1553 1553 1552 1552 1551
1531 1534 1535 1537 1538 1540 1541 1542 1543 1544 1545 1546 1547 1548 1548 1549 1550 1551 1551 1552 1552 1552 1553 1552 1552 1552 1553 1552 1552 1552 1551 1551 1551 1551 1550 1550 1549 1549 1548 1548 1547 1547 1546
1527 1530 1531 1533 1534 1535 1536 1538 1539 1540 1541 1542 1543 1544 1544 1545 1546 1547 1547 1548 1548 1548 1548 1548 1548 1548 1548 1548 1548 1547 1546 1545 1545 1545 1544 1544 1544 1543 1543 1542 1541 1541 1540
1523 1524 1526 1527 1529 1530 1531 1533 1534 1535 1536 1537 1538 1539 1540 1541 1541 1542 1542 1543 1543 1544 1543 1544 1543 1543 1543 1543 1543 1542 1541 1540 1538 1539 1538 1537 1537 1536 1536 1536 1535 1534 1533
1518 1519 1521 1522 1523 1524 1526 1527 1528 1529 1531 1532 1533 1534 1535 1535 1536 1537 1537 1538 1538 1538 1539 1539 1538 1537 1537 1537 1537 1536 1535 1533 1532 1532 1531 1529 1530 1528 1528 1527 1527 1526 1525
1513 1514 1516 1517 1518 1519 1521 1522 1523 1524 1525 1526 1527 1528 1529 1529 1530 1531 1531 1532 1532 1533 1533 1533 1532 1532 1532 1532 1531 1530 1528 1526 1525 1525 1525 1521 1521 1520 1520 1519 1518 1518 1517
1508 1509 1511 1512 1513 1514 1515 1517 1518 1518 1519 1519 1520 1521 1522 1523 1523 1524 1525 1525 1525 1526 1526 1526 1526 1525 1525 1525 1524 1523 1521 1520 1517 1517 1517 1514 1512 1511 1510 1509 1509 1509 1508
1504 1505 1506 1507 1508 1509 1510 1511 1512 1513 1513 1514 1514 1515 1515 1516 1517 1518 1518 1518 1518 1518 1519 1519 1519 1518 1517 1517 1517 1516 1514 1513 1510 1508 1508 1507 1504 1503 1499 1498 1499 1500 1499